| time (UTC) | temp C | wind direction | speed KPH | gust KPH | rain 1hr cm | rain 24hr cm | rain mn cm | humidity % | barometer mb |
| 20260506051155 | 9 | 60 | 4.8 | 4.8 | 0.00 | 0.00 | 0.03 | 87 | 1011.0 |
| 20260506050706 | 9 | 89 | 6.4 | 6.4 | 0.00 | 0.00 | 0.03 | 88 | 1011.0 |
| 20260506044823 | 9 | 138 | 6.4 | 6.4 | 0.00 | 0.00 | 0.03 | 89 | 1011.0 |
| 20260506044225 | 9 | 150 | 6.4 | 6.4 | 0.00 | 0.00 | 0.03 | 90 | 1011.0 |
| 20260506043503 | 10 | 198 | 8.0 | 8.0 | 0.00 | 0.00 | 0.03 | 91 | 1011.0 |
| 20260506043010 | 10 | 179 | 4.8 | 4.8 | 0.00 | 0.00 | 0.03 | 91 | 1011.0 |
| 20260506042506 | 10 | 168 | 6.4 | 6.4 | 0.00 | 0.00 | 0.03 | 92 | 1011.0 |
| 20260506042003 | 10 | 102 | 4.8 | 4.8 | 0.00 | 0.00 | 0.03 | 92 | 1011.0 |
| 20260506041256 | 10 | 132 | 4.8 | 4.8 | 0.00 | 0.00 | 0.03 | 92 | 1011.0 |
| 20260506040305 | 10 | 174 | 4.8 | 4.8 | 0.00 | 0.00 | 0.03 | 93 | 1011.0 |
| 20260506035805 | 10 | 120 | 4.8 | 4.8 | 0.00 | 0.00 | 0.03 | 93 | 1011.0 |
| 20260506035148 | 10 | 156 | 4.8 | 4.8 | 0.00 | 0.00 | 0.03 | 93 | 1011.0 |
| 20260506034532 | 10 | 214 | 4.8 | 4.8 | 0.00 | 0.00 | 0.03 | 93 | 1011.0 |
| 20260506033915 | 10 | 126 | 4.8 | 4.8 | 0.00 | 0.00 | 0.03 | 93 | 1011.0 |
| 20260506033423 | 10 | 206 | 6.4 | 6.4 | 0.00 | 0.00 | 0.03 | 93 | 1011.0 |
| 20260506032802 | 10 | 226 | 4.8 | 4.8 | 0.00 | 0.00 | 0.03 | 93 | 1011.0 |
| 20260506031750 | 10 | 246 | 4.8 | 4.8 | 0.00 | 0.00 | 0.03 | 92 | 1011.0 |
| 20260506031230 | 10 | 138 | 6.4 | 6.4 | 0.00 | 0.00 | 0.03 | 92 | 1011.0 |
| 20260506030729 | 10 | 174 | 4.8 | 4.8 | 0.00 | 0.00 | 0.03 | 93 | 1011.0 |
| 20260506030239 | 10 | 298 | 4.8 | 4.8 | 0.00 | 0.00 | 0.03 | 92 | 1011.0 |
| 20260506025633 | 10 | 126 | 9.7 | 9.7 | 0.00 | 0.00 | 0.03 | 92 | 1011.0 |
| 20260506025106 | 10 | 138 | 9.7 | 11.3 | 0.00 | 0.00 | 0.03 | 92 | 1011.0 |
| 20260506024442 | 10 | 90 | 4.8 | 4.8 | 0.00 | 0.00 | 0.03 | 92 | 1011.0 |
| 20260506023932 | 10 | 72 | 4.8 | 4.8 | 0.00 | 0.00 | 0.03 | 92 | 1011.0 |
| 20260506023337 | 10 | 192 | 6.4 | 6.4 | 0.00 | 0.00 | 0.03 | 92 | 1011.0 |
| 20260506022840 | 10 | 218 | 4.8 | 4.8 | 0.00 | 0.00 | 0.03 | 92 | 1011.0 |
| 20260506022231 | 10 | 156 | 4.8 | 4.8 | 0.00 | 0.00 | 0.03 | 92 | 1011.0 |
| 20260506021312 | 9 | 150 | 4.8 | 4.8 | 0.00 | 0.00 | 0.03 | 92 | 1011.0 |
| 20260506020820 | 9 | 164 | 6.4 | 6.4 | 0.00 | 0.00 | 0.03 | 92 | 1011.0 |
| 20260506020207 | 9 | 84 | 4.8 | 4.8 | 0.00 | 0.00 | 0.03 | 93 | 1011.0 |
| 20260506015659 | 9 | 30 | 6.4 | 6.4 | 0.00 | 0.00 | 0.03 | 93 | 1011.0 |
| 20260506015004 | 9 | 240 | 4.8 | 4.8 | 0.00 | 0.00 | 0.03 | 93 | 1011.0 |
| 20260506014348 | 9 | 102 | 6.4 | 6.4 | 0.00 | 0.00 | 0.03 | 93 | 1011.0 |
| 20260506013748 | 9 | 114 | 11.3 | 11.3 | 0.00 | 0.00 | 0.03 | 93 | 1011.0 |
| 20260506013245 | 9 | 246 | 4.8 | 4.8 | 0.00 | 0.00 | 0.03 | 93 | 1011.0 |
| 20260506012714 | 9 | 165 | 4.8 | 4.8 | 0.00 | 0.00 | 0.03 | 93 | 1011.0 |
| 20260506003537 | 9 | 150 | 6.4 | 6.4 | 0.00 | 0.00 | 0.03 | 92 | 1011.0 |
| 20260506003020 | 8 | 72 | 4.8 | 4.8 | 0.00 | 0.00 | 0.03 | 92 | 1011.0 |
| 20260506002511 | 9 | 169 | 4.8 | 4.8 | 0.00 | 0.00 | 0.03 | 92 | 1011.0 |
| 20260506000541 | 8 | 179 | 4.8 | 4.8 | 0.00 | 0.00 | 0.03 | 92 | 1011.0 |
| 20260506000009 | 8 | 144 | 4.8 | 4.8 | 0.00 | 0.00 | 0.03 | 93 | 1011.0 |
| 20260505235122 | 9 | 245 | 4.8 | 4.8 | 0.00 | 0.00 | 0.03 | 93 | 1011.0 |
| 20260505234451 | 9 | 184 | 4.8 | 4.8 | 0.00 | 0.00 | 0.03 | 93 | 1011.0 |
| 20260505234423 | 9 | 201 | 9.7 | 9.7 | 0.00 | 0.00 | 0.03 | 93 | 1011.0 |
| 20260505233947 | 8 | 60 | 4.8 | 4.8 | 0.00 | 0.00 | 0.03 | 93 | 1011.0 |
| 20260505233449 | 9 | 132 | 4.8 | 4.8 | 0.00 | 0.00 | 0.03 | 93 | 1011.0 |
| 20260505232906 | 9 | 208 | 4.8 | 4.8 | 0.00 | 0.00 | 0.03 | 94 | 1011.0 |
| 20260505232351 | 9 | 169 | 4.8 | 4.8 | 0.00 | 0.00 | 0.03 | 94 | 1011.0 |
| 20260505231758 | 9 | 138 | 4.8 | 4.8 | 0.00 | 0.00 | 0.03 | 94 | 1011.0 |
| 20260505231136 | 9 | 169 | 4.8 | 4.8 | 0.00 | 0.00 | 0.03 | 93 | 1012.0 |
| 20260505230139 | 9 | 102 | 4.8 | 4.8 | 0.00 | 0.00 | 0.03 | 94 | 1012.0 |
| 20260505225636 | 9 | 209 | 4.8 | 4.8 | 0.00 | 0.00 | 0.03 | 94 | 1012.0 |
| 20260505224337 | 9 | 234 | 4.8 | 4.8 | 0.00 | 0.00 | 0.03 | 94 | 1012.0 |
| 20260505223744 | 9 | 153 | 6.4 | 6.4 | 0.00 | 0.00 | 0.03 | 94 | 1012.0 |
| 20260505223129 | 9 | 66 | 4.8 | 4.8 | 0.00 | 0.00 | 0.03 | 94 | 1012.0 |
| 20260505222552 | 9 | 73 | 4.8 | 4.8 | 0.05 | 0.00 | 0.03 | 94 | 1012.0 |
| 20260505222026 | 9 | 153 | 12.9 | 12.9 | 0.00 | 0.00 | 0.00 | 94 | 1012.0 |
| 20260505220947 | 9 | 191 | 4.8 | 4.8 | 0.00 | 0.00 | 0.00 | 95 | 1012.0 |
| 20260505220124 | 9 | 242 | 8.0 | 8.0 | 0.00 | 0.00 | 0.00 | 95 | 1012.0 |
| 20260505215603 | 9 | 12 | 6.4 | 6.4 | 0.00 | 0.00 | 5.66 | 95 | 1011.0 |
| 20260505214942 | 9 | 138 | 6.4 | 6.4 | 0.00 | 0.00 | 5.66 | 95 | 1011.0 |
| 20260505213641 | 9 | 138 | 4.8 | 4.8 | 0.00 | 0.00 | 5.66 | 95 | 1011.0 |
| 20260505212237 | 9 | 150 | 4.8 | 4.8 | 0.00 | 0.00 | 5.66 | 95 | 1012.0 |
| 20260505211715 | 9 | 102 | 4.8 | 4.8 | 0.00 | 0.00 | 5.66 | 95 | 1012.0 |
| 20260505210022 | 9 | 120 | 4.8 | 4.8 | 0.00 | 0.00 | 5.66 | 94 | 1011.0 |
| 20260505205408 | 9 | 218 | 4.8 | 4.8 | 0.00 | 0.00 | 5.66 | 94 | 1011.0 |
| 20260505204910 | 9 | 126 | 4.8 | 4.8 | 0.00 | 0.00 | 5.66 | 94 | 1011.0 |
| 20260505204321 | 9 | 165 | 4.8 | 4.8 | 0.00 | 0.00 | 5.66 | 94 | 1011.0 |
| 20260505203408 | 9 | 218 | 6.4 | 6.4 | 0.00 | 0.00 | 5.66 | 94 | 1011.0 |
| 20260505202509 | 9 | 208 | 11.3 | 11.3 | 0.00 | 0.00 | 5.66 | 94 | 1011.0 |
| 20260505201406 | 9 | 153 | 4.8 | 4.8 | 0.00 | 0.00 | 5.66 | 94 | 1011.0 |
| 20260505200810 | 9 | 150 | 4.8 | 4.8 | 0.00 | 0.00 | 5.66 | 94 | 1011.0 |
| 20260505195859 | 9 | 170 | 4.8 | 4.8 | 0.00 | 0.00 | 5.66 | 94 | 1011.0 |
| 20260505194956 | 9 | 54 | 8.0 | 8.0 | 0.00 | 0.00 | 5.66 | 94 | 1011.0 |
| 20260505194444 | 9 | 196 | 4.8 | 4.8 | 0.00 | 0.00 | 5.66 | 94 | 1011.0 |
| 20260505193948 | 10 | 102 | 4.8 | 4.8 | 0.00 | 0.00 | 5.66 | 94 | 1011.0 |
| 20260505193251 | 10 | 126 | 4.8 | 4.8 | 0.00 | 0.00 | 5.66 | 94 | 1011.0 |
| 20260505192401 | 10 | 196 | 9.7 | 9.7 | 0.00 | 0.00 | 5.64 | 94 | 1011.0 |
| 20260505191909 | 10 | 168 | 6.4 | 6.4 | 0.00 | 0.00 | 5.64 | 94 | 1011.0 |
| 20260505191409 | 10 | 24 | 4.8 | 4.8 | 0.00 | 0.00 | 5.64 | 95 | 1011.0 |
| 20260505190846 | 10 | 144 | 6.4 | 6.4 | 0.00 | 0.00 | 5.64 | 95 | 1011.0 |
| 20260505190348 | 10 | 72 | 4.8 | 4.8 | 0.00 | 0.00 | 5.64 | 95 | 1011.0 |
| 20260505185845 | 10 | 84 | 4.8 | 4.8 | 0.00 | 0.00 | 5.64 | 95 | 1011.0 |
| 20260505185230 | 10 | 138 | 9.7 | 9.7 | 0.00 | 0.00 | 5.64 | 95 | 1011.0 |
| 20260505184737 | 10 | 66 | 4.8 | 4.8 | 0.00 | 0.00 | 5.64 | 95 | 1011.0 |
| 20260505184433 | 10 | 102 | 4.8 | 4.8 | 0.00 | 0.00 | 5.64 | 95 | 1011.0 |
| 20260505184228 | 10 | 90 | 4.8 | 4.8 | 0.00 | 0.00 | 5.64 | 95 | 1011.0 |
| 20260505183612 | 10 | 138 | 4.8 | 4.8 | 0.03 | 0.00 | 5.64 | 95 | 1011.0 |
| 20260505183101 | 10 | 132 | 4.8 | 4.8 | 0.00 | 0.00 | 5.61 | 95 | 1011.0 |
| 20260505182609 | 10 | 30 | 4.8 | 4.8 | 0.00 | 0.00 | 5.61 | 95 | 1011.0 |
| 20260505182006 | 10 | 159 | 6.4 | 6.4 | 0.00 | 0.00 | 5.61 | 95 | 1011.0 |
| 20260505181514 | 10 | 147 | 4.8 | 4.8 | 0.00 | 0.00 | 5.61 | 95 | 1011.0 |
| 20260505181018 | 10 | 186 | 4.8 | 4.8 | 0.08 | 0.00 | 5.61 | 95 | 1011.0 |
| 20260505180417 | 10 | 126 | 4.8 | 4.8 | 0.00 | 0.00 | 5.59 | 95 | 1011.0 |
| 20260505175822 | 10 | 138 | 6.4 | 6.4 | 0.00 | 0.00 | 5.59 | 95 | 1011.0 |
| 20260505175247 | 10 | 156 | 4.8 | 4.8 | 0.08 | 0.00 | 5.59 | 95 | 1011.0 |
| 20260505174752 | 10 | 165 | 14.5 | 16.1 | 0.00 | 0.00 | 5.56 | 95 | 1011.0 |
| 20260505174111 | 10 | 126 | 6.4 | 6.4 | 0.03 | 0.00 | 5.56 | 95 | 1011.0 |
| 20260505173614 | 10 | 174 | 8.0 | 8.0 | 0.00 | 0.00 | 5.54 | 95 | 1011.0 |
| 20260505172955 | 10 | 126 | 4.8 | 4.8 | 0.00 | 0.00 | 5.54 | 95 | 1011.0 |
| 20260505172503 | 10 | 102 | 6.4 | 6.4 | 0.10 | 0.00 | 5.54 | 95 | 1011.0 |
| 20260505172217 | 10 | 126 | 6.4 | 6.4 | 0.00 | 0.00 | 5.51 | 95 | 1011.0 |
| 20260505172004 | 10 | 245 | 6.4 | 6.4 | 0.00 | 0.00 | 5.51 | 95 | 1011.0 |
| 20260505171441 | 10 | 72 | 6.4 | 6.4 | 0.03 | 0.00 | 5.51 | 95 | 1011.0 |
| 20260505170948 | 10 | 18 | 4.8 | 4.8 | 0.00 | 0.00 | 5.49 | 95 | 1011.0 |
| 20260505170748 | 10 | 78 | 6.4 | 6.4 | 0.00 | 0.00 | 5.49 | 95 | 1011.0 |
| 20260505170447 | 10 | 192 | 8.0 | 8.0 | 0.03 | 0.00 | 5.49 | 95 | 1011.0 |
| 20260505165913 | 10 | 73 | 4.8 | 4.8 | 0.00 | 0.00 | 5.46 | 95 | 1011.0 |
| 20260505165202 | 10 | 108 | 4.8 | 4.8 | 0.05 | 0.00 | 5.46 | 95 | 1011.0 |
| 20260505164907 | 10 | 120 | 4.8 | 4.8 | 0.00 | 0.00 | 5.44 | 95 | 1011.0 |
| 20260505164702 | 10 | 179 | 4.8 | 4.8 | 0.00 | 0.00 | 5.44 | 95 | 1011.0 |
| 20260505164158 | 10 | 108 | 4.8 | 4.8 | 0.05 | 0.00 | 5.44 | 95 | 1011.0 |
| 20260505163504 | 10 | 162 | 9.7 | 11.3 | 0.00 | 0.00 | 5.41 | 95 | 1011.0 |
| 20260505162956 | 10 | 150 | 9.7 | 9.7 | 0.05 | 0.00 | 5.41 | 94 | 1011.0 |
| 20260505162506 | 10 | 156 | 9.7 | 9.7 | 0.03 | 0.00 | 5.38 | 95 | 1011.0 |
| 20260505162320 | 10 | 242 | 8.0 | 8.0 | 0.05 | 0.00 | 5.38 | 95 | 1011.0 |
| 20260505161935 | 10 | 132 | 4.8 | 4.8 | 0.30 | 0.00 | 5.38 | 95 | 1011.0 |
| 20260505161414 | 10 | 174 | 4.8 | 4.8 | 0.08 | 0.00 | 5.36 | 95 | 1011.0 |
| 20260505161331 | 10 | 138 | 4.8 | 4.8 | 0.10 | 0.00 | 5.36 | 95 | 1011.0 |
| 20260505160920 | 10 | 144 | 4.8 | 4.8 | 0.00 | 0.00 | 5.33 | 95 | 1011.0 |
| 20260505160332 | 10 | 174 | 9.7 | 9.7 | 0.10 | 0.00 | 5.33 | 95 | 1011.0 |
| 20260505153101 | 10 | 144 | 4.8 | 4.8 | 0.15 | 0.00 | 5.21 | 95 | 1010.0 |
| 20260505152545 | 10 | 62 | 6.4 | 6.4 | 0.00 | 0.00 | 5.18 | 95 | 1010.0 |
| 20260505152054 | 11 | 132 | 8.0 | 8.0 | 0.00 | 0.00 | 5.16 | 95 | 1010.0 |
| 20260505151525 | 10 | 162 | 4.8 | 4.8 | 0.00 | 0.00 | 5.16 | 95 | 1010.0 |
| 20260505151027 | 10 | 72 | 8.0 | 8.0 | 0.00 | 0.00 | 5.16 | 94 | 1010.0 |
| 20260505150526 | 10 | 120 | 4.8 | 4.8 | 0.10 | 0.00 | 5.16 | 95 | 1010.0 |
| 20260505140347 | 10 | 201 | 11.3 | 11.3 | 0.10 | 0.00 | 4.90 | 95 | 1010.0 |
| 20260505124933 | 11 | 107 | 6.4 | 6.4 | 0.05 | 0.00 | 4.62 | 95 | 1010.0 |
| 20260505124215 | 11 | 78 | 6.4 | 6.4 | 0.10 | 0.00 | 4.60 | 95 | 1010.0 |
| 20260505123312 | 11 | 61 | 4.8 | 4.8 | 0.10 | 0.00 | 4.57 | 95 | 1010.0 |
| 20260505121655 | 11 | 178 | 6.4 | 6.4 | 0.10 | 0.00 | 4.50 | 95 | 1010.0 |
| 20260505121028 | 11 | 242 | 9.7 | 9.7 | 0.15 | 0.00 | 4.47 | 94 | 1010.0 |
| 20260505120523 | 10 | 72 | 8.0 | 8.0 | 0.23 | 0.00 | 4.45 | 95 | 1010.0 |
| 20260505120024 | 10 | 312 | 8.0 | 8.0 | 0.13 | 0.00 | 4.42 | 95 | 1010.0 |
| 20260505115533 | 10 | 78 | 4.8 | 4.8 | 0.18 | 0.00 | 4.39 | 95 | 1010.0 |
| 20260505114922 | 10 | 90 | 4.8 | 4.8 | 0.18 | 0.00 | 4.37 | 95 | 1010.0 |
| 20260505114417 | 10 | 258 | 17.7 | 19.3 | 0.20 | 0.00 | 4.34 | 95 | 1010.0 |
| 20260505113833 | 10 | 150 | 9.7 | 11.3 | 0.30 | 0.00 | 4.32 | 95 | 1010.0 |
| 20260505113335 | 10 | 42 | 4.8 | 4.8 | 0.28 | 0.00 | 4.29 | 95 | 1010.0 |
| 20260505112841 | 10 | 90 | 4.8 | 4.8 | 0.10 | 0.00 | 4.24 | 95 | 1010.0 |
| 20260505112348 | 11 | 223 | 6.4 | 6.4 | 0.25 | 0.00 | 4.22 | 95 | 1010.0 |
| 20260505111723 | 11 | 100 | 6.4 | 6.4 | 0.25 | 0.00 | 4.17 | 95 | 1010.0 |
| 20260505111222 | 11 | 203 | 4.8 | 4.8 | 0.30 | 0.00 | 4.14 | 95 | 1010.0 |
| 20260505110647 | 11 | 12 | 4.8 | 4.8 | 0.08 | 0.00 | 4.09 | 95 | 1010.0 |
| 20260505110144 | 11 | 156 | 6.4 | 6.4 | 0.15 | 0.00 | 4.06 | 95 | 1010.0 |
| 20260505101937 | 11 | 82 | 4.8 | 4.8 | 0.30 | 0.00 | 3.78 | 96 | 1010.0 |
| 20260505101419 | 11 | 84 | 6.4 | 6.4 | 0.20 | 0.00 | 3.73 | 95 | 1010.0 |
| 20260505100928 | 11 | 24 | 6.4 | 6.4 | 0.56 | 0.00 | 3.71 | 96 | 1010.0 |
| 20260505100353 | 11 | 138 | 6.4 | 6.4 | 0.51 | 0.00 | 3.66 | 96 | 1010.0 |
| 20260505095855 | 11 | 90 | 6.4 | 6.4 | 0.46 | 0.00 | 3.61 | 96 | 1010.0 |
| 20260505095355 | 11 | 240 | 4.8 | 4.8 | 0.15 | 0.00 | 3.56 | 96 | 1010.0 |
| 20260505094859 | 11 | 185 | 4.8 | 4.8 | 0.18 | 0.00 | 3.53 | 96 | 1010.0 |
| 20260505094358 | 11 | 102 | 4.8 | 4.8 | 0.25 | 0.00 | 3.51 | 95 | 1010.0 |
| 20260505093842 | 11 | 190 | 6.4 | 6.4 | 0.18 | 0.00 | 3.48 | 96 | 1010.0 |
| 20260505093340 | 11 | 66 | 6.4 | 6.4 | 0.23 | 0.00 | 3.45 | 96 | 1010.0 |
| 20260505092816 | 11 | 179 | 6.4 | 6.4 | 0.15 | 0.00 | 3.43 | 96 | 1010.0 |
| 20260505092312 | 11 | 114 | 4.8 | 4.8 | 0.20 | 0.00 | 3.40 | 96 | 1010.0 |
| 20260505091809 | 11 | 209 | 6.4 | 6.4 | 0.15 | 0.00 | 3.38 | 96 | 1010.0 |
| 20260505091251 | 11 | 10 | 6.4 | 6.4 | 0.05 | 0.00 | 3.35 | 96 | 1010.0 |
| 20260505090714 | 11 | 184 | 6.4 | 6.4 | 0.00 | 0.00 | 3.33 | 96 | 1010.0 |
| 20260505090210 | 11 | 174 | 4.8 | 4.8 | 0.13 | 0.00 | 3.33 | 96 | 1010.0 |
| 20260505085701 | 11 | 216 | 11.3 | 11.3 | 0.00 | 0.00 | 3.30 | 96 | 1010.0 |
| 20260505085205 | 11 | 66 | 9.7 | 11.3 | 0.13 | 0.00 | 3.30 | 96 | 1010.0 |
| 20260505084715 | 11 | 156 | 8.0 | 8.0 | 0.20 | 0.00 | 3.28 | 96 | 1010.0 |
| 20260505084214 | 11 | 66 | 9.7 | 11.3 | 0.25 | 0.00 | 3.25 | 96 | 1010.0 |
| 20260505083722 | 11 | 159 | 6.4 | 6.4 | 0.08 | 0.00 | 3.20 | 96 | 1010.0 |
| 20260505083058 | 11 | 144 | 6.4 | 6.4 | 0.33 | 0.00 | 3.17 | 96 | 1010.0 |
| 20260505082418 | 11 | 174 | 11.3 | 12.9 | 0.08 | 0.00 | 3.12 | 96 | 1010.0 |
| 20260505081910 | 11 | 138 | 4.8 | 4.8 | 0.03 | 0.00 | 3.10 | 96 | 1010.0 |
| 20260505081340 | 11 | 168 | 6.4 | 6.4 | 0.05 | 0.00 | 3.07 | 96 | 1010.0 |
| 20260505080823 | 11 | 72 | 6.4 | 6.4 | 0.05 | 0.00 | 3.05 | 96 | 1010.0 |
| 20260505075434 | 11 | 102 | 12.9 | 14.5 | 0.33 | 0.00 | 3.00 | 96 | 1010.0 |
| 20260505074745 | 11 | 288 | 4.8 | 4.8 | 0.05 | 0.00 | 2.95 | 96 | 1010.0 |
| 20260505074145 | 11 | 242 | 12.9 | 14.5 | 0.08 | 0.00 | 2.92 | 96 | 1010.0 |
| 20260505073650 | 11 | 120 | 6.4 | 6.4 | 0.08 | 0.00 | 2.90 | 96 | 1010.0 |
| 20260505072958 | 11 | 180 | 4.8 | 4.8 | 0.10 | 0.00 | 2.87 | 96 | 1010.0 |
| 20260505072456 | 11 | 198 | 4.8 | 4.8 | 0.18 | 0.00 | 2.84 | 96 | 1010.0 |
| 20260505071747 | 11 | 12 | 4.8 | 4.8 | 0.03 | 0.00 | 2.79 | 96 | 1010.0 |
| 20260505071245 | 11 | 150 | 6.4 | 6.4 | 0.00 | 0.00 | 2.77 | 96 | 1010.0 |
| 20260505070722 | 11 | 207 | 6.4 | 6.4 | 0.13 | 0.00 | 2.77 | 96 | 1010.0 |
| 20260505070144 | 11 | 150 | 6.4 | 6.4 | 0.00 | 0.00 | 2.74 | 96 | 1010.0 |
| 20260505065630 | 11 | 168 | 6.4 | 6.4 | 0.00 | 0.00 | 2.72 | 96 | 1010.0 |
| 20260505065128 | 11 | 144 | 6.4 | 6.4 | 0.10 | 0.00 | 2.72 | 96 | 1010.0 |
| 20260505064345 | 11 | 108 | 4.8 | 4.8 | 0.30 | 0.00 | 2.69 | 96 | 1010.0 |
| 20260505063307 | 11 | 164 | 4.8 | 4.8 | 0.00 | 0.00 | 2.62 | 96 | 1010.0 |
| 20260505063021 | 11 | 198 | 4.8 | 4.8 | 0.00 | 0.00 | 2.62 | 96 | 1010.0 |
| 20260505062537 | 11 | 186 | 9.7 | 11.3 | 0.13 | 0.00 | 2.62 | 96 | 1010.0 |
| 20260505061910 | 11 | 114 | 4.8 | 4.8 | 0.05 | 0.00 | 2.59 | 96 | 1010.0 |
| 20260505061104 | 11 | 106 | 6.4 | 6.4 | 0.20 | 0.00 | 2.57 | 96 | 1010.0 |
| 20260505060951 | 11 | 264 | 4.8 | 4.8 | 0.30 | 0.00 | 2.57 | 96 | 1010.0 |
| 20260505060555 | 11 | 290 | 6.4 | 6.4 | 0.08 | 0.00 | 2.54 | 96 | 1010.0 |
| 20260505055447 | 11 | 215 | 4.8 | 4.8 | 0.00 | 0.00 | 2.49 | 96 | 1010.0 |
| 20260505054510 | 11 | 108 | 6.4 | 6.4 | 0.03 | 0.00 | 2.49 | 96 | 1010.0 |
| 20260505053503 | 11 | 108 | 4.8 | 4.8 | 0.00 | 0.00 | 2.46 | 96 | 1010.0 |
| 20260505052914 | 10 | 78 | 4.8 | 4.8 | 0.00 | 0.00 | 2.46 | 96 | 1010.0 |
| 20260505052356 | 11 | 234 | 14.5 | 14.5 | 0.05 | 0.00 | 2.46 | 96 | 1010.0 |
| 20260505052152 | 11 | 239 | 4.8 | 4.8 | 0.10 | 0.00 | 2.46 | 96 | 1010.0 |